Location: Brachstadt
(48.6975°N, 10.6755°E)
Time: 12:12:49
(UTC+00:00)

Envisat - Pass Details

Date: 04 December 2022
Orbit: 763 x 765 km, 98.2° (Epoch: 06 February)

Event Time Altitude Azimuth Distance (km) Brightness Sun altitude
Rises 05:21:14 0° 1° (N) 3,246 6.1 -14.3°
Reaches altitude 10° 05:24:23 10° 340° (NNW) 2,315 5.1 -13.8°
Enters shadow 05:26:17 15° 319° (NW) 1,986 4.6 -13.5°
